AirNav   Air Wisconsin pilot careers
 
 965 users online  

2OK2 Twin Lakes Airport
Midwest City, Oklahoma, USA

GOING TO MIDWEST CITY?


FAA INFORMATION EFFECTIVE 09 NOVEMBER 2017

Location

FAA Identifier: 2OK2
Lat/Long: 35-19-45.2390N / 097-16-11.1080W
35-19.753983N / 097-16.185133W
35.3292331 / -97.2697522
(estimated)
Elevation: 1199 ft. / 365 m (estimated)
Variation: 07E (1985)
From city: 10 miles SE of MIDWEST CITY, OK
Time zone: UTC -6 (UTC -5 during Daylight Saving Time)
Zip code: 73165

Airport Operations

Airport use: Private use. Permission required prior to landing
Control tower: no
ARTCC: FORT WORTH CENTER
FSS: MC ALESTER FLIGHT SERVICE STATION
Attendance: UNATNDD
Wind indicator: yes
Segmented circle: no
Lights: ACTVT LIRL RY N/S - 122.7.

Airport Communications

UNICOM: 122.7
WX AWOS-3 at OUN (11 nm SW): 119.55 (405-325-7302)
WX AWOS-3 at SNL (16 nm E): 118.275 (405-878-1745)
WX ASOS at OKC (17 nm W): PHONE 405-686-4711

Nearby radio navigation aids

VOR radial/distance  VOR name  Freq  Var
IRWr089/16.7WILL ROGERS VORTAC114.1007E
PWAr116/22.1WILEY POST VOR/DME113.4008E

 
NDB name  Hdg/Dist  Freq  Var  ID
NORMAN057/10.937007EOUN --- ..- -.
MULDROW348/18.151206EHMY .... -- -.--
SEMINOLE271/29.327806ESRE ... .-. .
TILGHMAN217/32.439606ECQB -.-. --.- -...

Airport Services

Airframe service: NONE
Powerplant service: NONE

Runway Information

Runway N/S

Dimensions: 2702 x 30 ft. / 824 x 9 m
Surface: concrete
Runway edge lights: low intensity
RUNWAY N  RUNWAY S
Traffic pattern: rightleft
Obstructions: 300 ft. pline, 4000 ft. from runwaynone

Airport Ownership and Management from official FAA records

Ownership: Privately-owned
Owner: PILOTS HAVEN AIRPORT INC
13800 CHANDELLE DRIVE
NEWALLA, OK 74857
Phone 405-819-6671
Manager: SANDY SHARPE
13800 SKY HARBOR WAY
NEWALLA, OK 74857
Phone 405-819-6671

Airport Operational Statistics

Aircraft based on the field: 16
Single engine airplanes: 15
Multi engine airplanes: 1
    

Additional Remarks

SHARP DROP OFF AT EACH END OF RWY.
HIGH LINE AT RIGHT ANGLE TO RWY-APRX 3/4MI FM S END OF RWY.
AIRPORT TRAFFIC REMAIN EAST OF RY.

Instrument Procedures

There are no published instrument procedures at 2OK2.

Some nearby airports with instrument procedures:

KTIK - Tinker Air Force Base (8 nm NW)
KOUN - University of Oklahoma Westheimer Airport (11 nm SW)
1K4 - David Jay Perry Airport (14 nm SW)
KSNL - Shawnee Regional Airport (16 nm E)
KOKC - Will Rogers World Airport (17 nm W)
KHMY - Muldrow Army Heliport (18 nm S)
 
Loc | Ops | Rwys | IFR | FBO | Links
Com | Nav | Svcs | Stats | Notes


 
Area around 2OK2 (Twin Lakes Airport)
 
Road maps at: MapQuest Bing Google
 
Aerial photo
WARNING: Photo may not be current or correct
Aerial photo of 2OK2 (Twin Lakes Airport)
Do you have a better or more recent aerial photo of Twin Lakes Airport that you would like to share? If so, please send us your photo.

 
Sectional chart

 
Airport distance calculator
Flying to Twin Lakes Airport? Find the distance to fly.

From to 2OK2

Sunrise and sunset
Times for 24-Nov-2017
 Local
(UTC-6)
 Zulu
(UTC)
Morning civil twilight06:4712:47
Sunrise07:1413:14
Sunset17:1823:18
Evening civil twilight17:4523:45

Current date and time
Zulu (UTC)  24-Nov-2017 18:56:49
Local (UTC-6)  24-Nov-2017 12:56:49
 
METAR
KTIK 
7nm NW 
241756Z AUTO 18015KT 10SM CLR 22/03 A2979 RMK AO2 SLP089 T02150027 10215 20066 57017
KOUN 
11nm SW 
241835Z AUTO 16013KT 10SM CLR 24/03 A2975 RMK AO2 T02370028
KSNL 
16nm E 
241835Z AUTO 20011G17KT 10SM CLR 25/02 A2978 RMK AO2 T02460022
KOKC 
16nm W 
241752Z 18015G20KT 10SM SCT250 24/02 A2979 RMK AO2 SLP081 T02390022 10239 20050 58017
KHMY 
18nm S 
SuperAWOS
241455Z AUTO 21008KT 5SM HZ 12/02 A2986
TAF
KTIK 
7nm NW 
241800Z 2418/2524 18010G15KT 9999 SKC QNH2970INS BECMG 2422/2423 14006KT 9999 FEW080 QNH2972INS BECMG 2506/2507 05009KT 9999 FEW120 QNH2984INS TX23/2421Z TN08/2512Z
KOUN 
11nm SW 
241720Z 2418/2518 19014G21KT P6SM SCT250 FM250000 16006KT P6SM SCT250 FM250800 02010KT P6SM FEW120 SCT250
KOKC 
16nm W 
241720Z 2418/2518 19014G22KT P6SM SCT250 FM250000 16007KT P6SM SCT250 FM250700 02015KT P6SM FEW120 SCT250
NOTAMs
Click for the latest NOTAMs
NOTAMs are issued by the DoD/FAA and will open in a separate window not controlled by AirNav.

 

 
 

Would you like to see your business listed on this page?

 If your business provides an interesting product or service to pilots, flight crews, aircraft, or users of the Twin Lakes Airport, you should consider listing it here.  To start the listing process, click on the button below
 
Add a business
 

Other Pages about Twin Lakes Airport

Update a link
 
Copyright © AirNav, LLC. All rights reserved. Privacy Policy  Contact